Wind_Speed
6 6 6 6 6 6 6 6 6 5 5 4 4 4 4 4 5 5 5 6 7 7 6 7 10 10 10 9 8 7 6 5 6 6 5 4 4 3 2 2 2 1 2
6 6 6 6 6 6 6 6 6 5 5 5 5 5 5 5 6 6 7 8 8 7 8 9 11 11 9 9 8 7 7 6 7 6 5 4 3 3 2 2 1 1 1
6 6 6 6 6 6 6 5 5 5 5 5 6 6 6 7 7 7 8 8 8 9 9 11 11 9 9 8 7 7 7 7 7 6 5 4 3 2 2 1 1 0 1
6 6 6 6 6 6 6 5 5 5 5 5 6 6 7 7 7 7 8 8 8 9 9 9 8 9 8 7 6 7 8 7 6 5 5 4 3 2 2 1 1 0 1
7 7 7 8 7 6 6 6 5 6 5 6 6 6 6 7 7 8 8 8 8 8 8 9 9 9 9 8 6 7 7 7 7 5 4 4 3 2 2 1 0 1 1
8 8 9 9 8 7 7 6 6 5 6 6 6 6 7 8 9 9 8 7 6 7 8 9 9 8 7 6 6 6 6 7 6 5 4 4 3 3 2 2 1 1 1
8 8 9 9 9 8 7 6 6 6 6 7 6 7 8 8 8 8 7 7 7 7 7 8 8 7 7 6 6 6 6 6 6 5 5 4 3 3 2 1 1 2 1
9 9 9 9 8 8 7 7 7 6 7 7 6 7 8 8 8 8 8 7 7 6 6 6 7 6 6 6 6 6 6 6 5 5 4 3 3 3 2 1 1 1 1
10 10 10 9 8 8 7 7 7 7 8 8 7 8 8 8 8 8 7 5 5 5 6 6 6 6 5 5 5 5 5 5 5 4 3 3 3 2 2 1 1 1 1
10 10 10 9 8 8 8 8 8 8 8 8 8 9 8 8 8 7 6 5 5 5 5 6 5 5 5 5 4 5 5 5 4 3 3 2 2 2 2 1 1 0 0
11 11 10 9 9 9 9 8 9 9 9 9 9 9 8 8 8 7 6 4 4 5 5 5 5 5 5 4 3 4 4 3 3 3 2 2 1 1 1 2 1 1 1
11 11 11 10 10 10 9 9 9 9 10 10 10 9 9 8 8 7 5 4 4 4 4 5 5 5 4 4 3 2 2 2 2 2 2 2 2 2 2 2 2 2 2
11 11 10 10 10 11 11 10 10 10 10 10 10 9 9 8 7 6 6 5 4 4 4 4 5 4 4 3 2 1 1 1 0 1 1 2 2 2 3 3 3 3 3
11 11 11 11 11 11 11 11 10 10 10 9 9 9 8 8 7 6 6 5 5 5 5 4 4 3 3 2 1 1 0 0 1 1 2 3 3 3 3 4 4 4 4
11 12 12 12 11 11 11 11 11 10 9 9 9 9 8 7 6 6 5 5 4 4 4 4 3 2 2 1 0 0 1 1 1 2 2 3 3 3 4 4 4 5 5
11 12 12 12 11 11 11 11 11 10 10 9 9 9 8 7 7 6 5 5 5 4 4 4 3 3 2 1 0 1 1 2 1 2 3 3 4 5 5 5 5 5 6
11 11 12 11 11 11 11 11 11 11 11 10 9 9 8 7 6 6 5 5 5 5 5 4 3 3 2 1 2 2 2 2 1 2 3 4 4 5 5 6 6 6 7
10 10 10 10 11 10 10 10 10 10 10 10 9 8 8 7 7 6 6 5 5 4 5 5 4 2 2 2 2 2 2 2 2 3 4 4 5 5 5 6 7 7 7
9 9 9 9 9 9 9 9 9 9 9 9 9 8 8 8 7 6 5 5 4 4 4 5 4 3 2 2 2 3 3 3 2 3 5 5 6 6 6 7 7 8 8
8 8 8 8 8 9 9 8 9 9 8 8 8 8 7 7 6 5 5 5 5 4 4 4 4 3 2 2 2 3 4 4 3 3 5 6 7 7 7 7 8 7 8
8 7 7 7 7 8 8 8 8 8 8 8 8 8 7 6 5 5 5 5 5 4 4 4 4 3 2 3 3 4 5 5 5 5 6 6 7 7 7 7 8 9 8
7 7 6 6 7 7 7 7 8 8 8 8 8 8 7 6 6 5 5 5 5 5 4 4 4 3 3 3 4 4 5 6 6 7 7 7 7 7 7 8 8 9 9
6 6 6 6 6 6 6 7 7 7 7 8 7 7 8 6 5 4 5 5 5 4 4 4 4 4 4 5 5 5 6 6 7 8 8 9 9 9 10 10 10 9 10
4 5 5 5 5 5 5 6 6 6 6 7 7 7 7 6 5 4 5 5 5 6 5 5 5 5 5 5 5 6 7 7 8 8 9 9 10 10 11 11 11 11 11
3 4 4 4 4 4 5 5 5 5 6 6 7 7 6 5 5 5 5 5 6 6 6 6 6 6 6 6 6 7 8 8 9 9 9 10 10 11 11 11 12 12 13
3 3 4 4 4 4 4 4 4 5 5 6 6 6 5 6 5 5 5 5 6 7 7 7 7 7 7 8 8 8 9 9 9 10 10 11 10 10 11 12 12 13 14
Wind_Direction
49 50 50 45 41 40 45 47 50 53 53 60 68 74 91 102 116 124 132 132 141 144 142 145 156 154 156 157 155 158 159 166 164 166 174 172 176 184 183 182 202 254 255
45 49 47 40 41 41 44 45 48 48 48 64 78 81 84 102 117 119 128 131 130 131 130 135 145 146 150 152 149 151 153 163 164 161 160 161 169 170 181 184 187 221 285
42 44 40 40 42 47 51 46 45 51 62 73 80 80 88 98 108 118 124 130 128 125 126 130 131 140 148 148 148 145 149 154 156 156 155 162 164 156 163 168 150 305 302
42 41 42 42 46 48 49 44 51 59 67 78 82 85 89 95 105 116 121 124 124 125 124 128 129 135 140 141 142 147 146 150 152 149 151 154 149 150 159 180 228 277 336
45 45 43 47 47 45 45 45 57 60 74 81 88 92 95 98 108 119 125 128 127 124 124 129 134 137 138 140 140 140 141 140 138 135 142 137 130 136 135 137 141 13 2
48 46 50 49 47 45 43 46 56 64 71 83 89 93 100 104 111 116 122 125 130 129 124 124 132 134 132 130 125 124 133 141 133 131 134 130 125 118 124 119 76 32 4
49 50 53 51 51 51 49 48 56 59 66 70 82 93 100 101 105 111 119 120 124 132 130 131 139 131 127 118 115 119 123 128 124 122 125 120 117 103 102 96 66 43 28
53 52 53 53 55 53 46 45 52 58 64 70 78 85 91 97 102 106 114 121 122 123 127 131 136 129 124 117 116 119 121 119 122 117 121 118 122 111 97 90 42 30 356
58 55 56 55 57 55 52 54 59 58 67 71 80 86 91 100 104 105 109 118 113 118 132 135 134 120 122 120 121 128 125 123 124 121 119 121 113 105 93 70 58 118 87
58 55 57 56 56 58 60 62 62 64 70 70 77 85 92 98 102 107 110 113 111 107 118 124 122 123 128 128 126 121 115 118 126 116 106 100 84 76 77 64 77 94 110
57 54 56 56 60 63 65 67 65 66 70 70 77 87 94 98 101 101 105 109 107 102 112 118 122 129 132 127 123 123 119 115 115 106 91 64 49 30 20 16 26 12 5
57 55 57 60 66 65 65 72 71 71 73 77 82 87 89 91 94 97 99 102 106 106 113 119 129 136 142 134 127 129 123 112 113 90 61 40 23 11 5 4 6 359 349
58 60 62 65 68 68 69 71 72 76 76 75 77 82 85 83 87 89 89 88 91 98 107 120 129 133 132 137 137 133 117 84 80 24 19 9 359 2 8 358 345 331 338
60 62 67 70 72 73 71 69 70 73 75 71 72 76 79 81 85 87 83 79 83 84 88 102 109 117 120 124 127 143 223 300 283 315 344 352 347 342 352 347 335 327 325
59 62 67 70 70 71 70 70 69 66 69 72 73 71 71 73 79 87 81 85 84 82 83 89 96 97 94 90 161 237 300 305 315 319 338 339 333 331 333 334 330 328 326
62 64 66 68 70 69 69 69 69 64 67 72 74 70 67 69 71 72 79 84 88 88 84 82 91 90 81 81 33 337 332 322 314 303 311 312 310 316 321 321 320 326 325
66 67 70 71 71 69 67 66 68 66 64 64 66 68 70 72 75 73 77 85 91 90 80 81 87 83 70 48 15 352 328 317 302 294 299 300 299 304 311 312 315 316 318
65 67 70 71 72 72 69 65 64 62 60 60 59 59 60 62 65 70 73 78 76 74 68 62 62 61 42 19 358 348 338 319 296 297 291 293 297 295 301 303 307 309 312
62 64 67 69 71 72 69 65 63 62 58 56 55 54 54 57 59 62 65 68 61 55 57 54 49 43 31 14 356 347 345 338 314 300 299 304 310 295 291 295 301 305 305
60 64 62 64 64 66 65 62 61 59 57 53 49 48 48 51 50 51 55 54 49 50 53 45 40 36 23 4 349 349 346 341 332 306 305 309 311 309 301 303 305 307 302
58 61 58 58 59 60 61 59 59 55 52 46 42 41 40 44 46 52 54 53 43 38 33 22 19 15 6 347 340 335 334 335 328 322 319 319 315 312 305 304 307 308 307
53 53 53 57 57 56 57 57 55 52 49 45 41 36 34 37 43 43 45 38 29 26 26 18 8 358 347 331 326 325 323 324 319 321 323 321 320 319 315 314 311 306 305
47 48 46 48 47 47 47 49 49 48 45 42 38 31 30 33 34 28 18 16 18 14 11 8 2 354 340 335 326 320 321 320 317 318 320 319 318 318 316 313 307 305 303
35 39 39 37 36 36 33 34 37 35 30 27 24 24 22 28 29 14 4 4 1 358 351 348 346 343 342 330 320 315 314 312 314 315 314 312 313 311 310 309 304 305 301
23 22 23 20 18 19 16 13 17 15 13 13 13 11 11 15 10 0 354 351 343 338 335 334 335 337 335 329 317 311 310 310 311 310 310 308 305 303 302 303 306 305 301
1 359 360 354 352 352 352 353 356 355 353 354 357 358 357 357 351 347 342 334 329 326 325 329 330 326 325 325 322 316 310 308 310 308 310 309 305 301 300 301 301 301 302
Height
5885 5884 5884 5883 5883 5882 5881 5881 5880 5879 5878 5877 5876 5875 5874 5873 5874 5874 5875 5875 5876 5876 5877 5876 5878 5881 5882 5883 5884 5886 5886 5887 5888 5889 5889 5890 5890 5890 5890 5890 5889 5889 5889
5886 5885 5885 5884 5883 5883 5882 5882 5881 5880 5878 5877 5876 5875 5874 5873 5874 5875 5875 5876 5877 5878 5878 5877 5878 5881 5883 5885 5885 5886 5887 5887 5888 5889 5890 5890 5890 5890 5890 5889 5889 5889 5888
5887 5886 5885 5885 5884 5884 5883 5882 5881 5880 5879 5878 5877 5876 5875 5874 5875 5876 5876 5877 5878 5879 5880 5880 5881 5883 5884 5886 5886 5887 5887 5888 5888 5889 5890 5890 5890 5890 5890 5889 5889 5889 5888
5887 5887 5886 5885 5885 5884 5883 5883 5881 5880 5879 5878 5878 5877 5876 5876 5876 5877 5877 5878 5879 5880 5882 5882 5883 5884 5885 5886 5887 5887 5888 5889 5889 5889 5890 5890 5890 5890 5890 5889 5889 5888 5888
5888 5887 5887 5886 5885 5885 5884 5883 5882 5881 5879 5878 5878 5877 5877 5877 5877 5877 5878 5879 5880 5882 5883 5884 5885 5886 5887 5887 5888 5888 5888 5889 5889 5890 5890 5890 5890 5890 5889 5889 5889 5888 5888
5889 5888 5888 5887 5886 5886 5885 5884 5882 5881 5880 5879 5878 5878 5878 5878 5878 5879 5880 5881 5882 5883 5885 5886 5886 5887 5888 5888 5889 5889 5889 5889 5890 5890 5890 5890 5890 5890 5889 5889 5888 5888 5887
5890 5889 5888 5888 5887 5886 5886 5885 5883 5882 5881 5880 5879 5879 5879 5879 5880 5880 5881 5882 5884 5885 5886 5887 5888 5888 5889 5889 5890 5890 5890 5891 5891 5891 5891 5891 5891 5890 5890 5889 5888 5887 5887
5891 5890 5889 5888 5888 5887 5886 5885 5884 5883 5881 5880 5879 5879 5880 5881 5882 5882 5883 5884 5885 5886 5887 5888 5888 5889 5890 5890 5891 5891 5891 5891 5891 5891 5891 5891 5891 5890 5890 5889 5888 5887 5886
5892 5891 5890 5889 5889 5888 5887 5886 5885 5884 5883 5881 5880 5880 5881 5882 5883 5884 5885 5885 5886 5887 5887 5888 5889 5890 5890 5891 5891 5891 5892 5892 5892 5891 5891 5891 5891 5890 5890 5889 5888 5887 5887
5893 5892 5891 5890 5889 5889 5888 5887 5887 5885 5884 5883 5882 5882 5882 5884 5885 5886 5887 5887 5887 5888 5888 5889 5890 5890 5891 5892 5892 5892 5892 5892 5892 5892 5892 5891 5891 5890 5890 5889 5888 5887 5887
5894 5894 5892 5891 5890 5890 5889 5889 5888 5887 5886 5885 5884 5884 5885 5886 5887 5887 5888 5888 5888 5889 5889 5890 5890 5891 5892 5892 5892 5892 5893 5892 5892 5892 5892 5892 5891 5891 5890 5889 5888 5888 5887
5896 5895 5893 5892 5891 5891 5890 5890 5890 5889 5888 5888 5887 5887 5887 5888 5889 5889 5889 5889 5889 5890 5890 5890 5891 5891 5892 5892 5893 5893 5893 5893 5893 5892 5892 5892 5891 5891 5890 5889 5888 5887 5887
5897 5896 5895 5894 5893 5892 5892 5892 5892 5891 5891 5890 5890 5890 5890 5890 5890 5890 5890 5890 5890 5890 5890 5891 5891 5892 5892 5893 5893 5893 5893 5893 5893 5892 5892 5892 5891 5890 5889 5888 5888 5887 5886
5899 5898 5897 5896 5895 5895 5895 5894 5894 5893 5893 5892 5892 5892 5891 5891 5891 5891 5891 5891 5891 5891 5891 5891 5891 5892 5892 5893 5893 5893 5893 5893 5892 5892 5891 5891 5890 5889 5889 5888 5887 5886 5885
5901 5900 5899 5898 5898 5897 5897 5896 5896 5895 5895 5894 5894 5893 5893 5893 5892 5892 5892 5892 5892 5892 5892 5891 5892 5892 5892 5892 5893 5893 5892 5892 5892 5892 5891 5890 5889 5888 5888 5887 5886 5885 5884
5903 5902 5901 5900 5900 5899 5899 5899 5898 5897 5896 5896 5895 5895 5894 5894 5893 5893 5893 5893 5893 5892 5892 5892 5892 5892 5893 5893 5893 5892 5892 5892 5891 5891 5890 5890 5889 5888 5887 5886 5885 5884 5883
5904 5903 5903 5902 5902 5901 5901 5900 5900 5899 5898 5898 5897 5896 5896 5895 5895 5894 5894 5894 5893 5893 5893 5893 5893 5893 5892 5892 5892 5892 5892 5891 5891 5890 5890 5889 5888 5887 5886 5885 5884 5883 5882
5905 5905 5904 5904 5903 5903 5903 5902 5901 5900 5900 5899 5899 5898 5897 5896 5896 5895 5895 5894 5894 5894 5894 5893 5893 5893 5892 5892 5892 5892 5891 5890 5890 5889 5888 5888 5887 5886 5885 5884 5883 5882 5880
5907 5906 5906 5905 5905 5904 5904 5903 5903 5902 5901 5900 5900 5899 5898 5898 5897 5896 5896 5895 5895 5895 5894 5894 5893 5893 5892 5892 5892 5891 5891 5890 5889 5888 5888 5887 5886 5884 5883 5882 5881 5880 5879
5908 5907 5907 5906 5906 5905 5905 5904 5904 5903 5902 5902 5901 5900 5899 5898 5897 5897 5896 5896 5895 5895 5894 5894 5893 5893 5892 5892 5891 5891 5890 5889 5889 5888 5886 5885 5884 5882 5881 5881 5879 5878 5877
5909 5909 5908 5907 5907 5906 5906 5905 5904 5904 5903 5902 5902 5900 5899 5898 5898 5897 5896 5896 5895 5895 5894 5894 5893 5892 5892 5891 5891 5890 5889 5888 5888 5887 5885 5884 5883 5881 5880 5879 5877 5876 5875
5910 5909 5909 5908 5908 5907 5907 5906 5905 5905 5904 5903 5902 5901 5900 5899 5898 5897 5897 5896 5895 5895 5894 5893 5892 5891 5891 5890 5890 5889 5888 5888 5886 5884 5883 5882 5881 5879 5878 5877 5875 5874 5873
5911 5910 5909 5909 5908 5908 5907 5907 5906 5905 5904 5904 5902 5901 5900 5899 5898 5898 5897 5896 5895 5894 5893 5892 5892 5891 5890 5889 5888 5888 5887 5886 5884 5883 5882 5880 5879 5878 5877 5875 5873 5872 5870
5911 5911 5910 5909 5909 5908 5907 5907 5906 5905 5905 5904 5903 5902 5901 5899 5898 5898 5897 5896 5895 5894 5893 5892 5891 5890 5889 5888 5887 5886 5886 5885 5883 5882 5881 5879 5878 5876 5875 5873 5871 5870 5868
5912 5911 5910 5909 5909 5908 5907 5907 5906 5905 5904 5903 5902 5901 5900 5899 5898 5897 5896 5895 5894 5893 5892 5891 5890 5889 5888 5887 5886 5885 5884 5883 5882 5880 5879 5878 5876 5874 5872 5871 5869 5868 5866
5911 5910 5910 5909 5908 5908 5907 5906 5905 5904 5903 5902 5901 5900 5899 5898 5897 5896 5895 5894 5893 5892 5891 5890 5889 5888 5887 5885 5884 5883 5882 5881 5879 5878 5877 5875 5873 5871 5870 5868 5867 5865 5863